[[{"header":{"parameterUnit":"m.s-1","parameterCategory":1,"la1":30.2992,"la2":30.254,"lo1":-89.0895,"lo2":-89.0443,"dy":0.0025,"dx":0.0025,"nx":19,"ny":19,"refTime":"2026-04-17T21:00:00:Z","depth":0,"parameterNumber":2,"parameterNumberName":"U-component_of_WINDS"},"data":[0,0,0,-2.6094,-2.6097,-2.6269,-2.627,-2.6506,-2.6509,0,0,0,0,0,0,0,0,0,0,0,-2.6048,-2.605,-2.6093,-2.6098,-2.6269,-2.627,-2.6506,-2.6509,0,0,0,0,0,0,0,0,0,0,0,-2.6047,-2.6049,-2.6051,-2.6098,-2.6269,-2.627,-2.6505,-2.6371,0,0,0,0,0,0,0,0,0,0,-2.6202,-2.6164,-2.6049,-2.6051,-2.6099,-2.6269,-2.627,-2.6365,-2.638,-2.6434,0,-2.648,0,-2.6497,-2.6525,-2.6526,0,0,0,-2.6095,-2.6151,-2.6192,-2.6052,-2.6101,-2.6269,-2.6191,-2.6373,-2.639,-2.6454,-2.6483,-2.6491,-2.6501,-2.6527,-2.6528,-2.6839,-2.6841,0,0,-2.6086,-2.6083,-2.618,-2.6203,-2.6172,-2.6186,-2.6197,-2.6383,-2.6416,-2.6484,-2.6497,-2.6505,-2.6528,-2.653,-2.6838,-2.684,0,0,0,-2.606,-2.6077,-2.6113,-2.6194,-2.6223,-2.6191,-2.6203,-2.6408,-2.6419,-2.6499,-2.6508,-2.653,-2.6533,-2.6836,-2.6839,-2.6913,0,0,0,-2.6054,-2.6061,-2.6109,-2.6109,-2.622,-2.6317,-2.6224,-2.6407,-2.6428,-2.6507,-2.653,-2.6535,-2.6834,-2.6837,-2.6907,-2.695,0,0,0,-2.6035,-2.6059,-2.6085,-2.6108,-2.6181,-2.6314,-2.6336,-2.6411,-2.6433,-2.6526,-2.6536,-2.6833,-2.6837,-2.6902,-2.6942,-2.7033,0,0,0,-2.6015,-2.6151,-2.6086,-2.6242,-2.618,-2.6356,-2.6335,-2.6467,-2.6555,-2.6531,-2.6835,-2.6838,-2.69,-2.6937,-2.7027,-2.711,-2.7143,0,0,-2.6185,-2.6171,-2.6263,-2.621,-2.6396,-2.633,-2.6529,-2.6615,-2.6629,-2.677,-2.6777,-2.6909,-2.6941,-2.7031,-2.7326,-2.7352,0,0,0,-2.6316,-2.6382,-2.6432,-2.6513,-2.6578,-2.664,-2.6694,-2.6726,-2.6844,-2.6698,-2.6965,-2.6984,-2.7037,-2.7078,-2.71,-2.7147,-2.6856,-2.6855,-2.6855,-2.6556,-2.6562,-2.6714,-2.6741,-2.6821,-2.6874,-2.6941,-2.6993,-2.6979,-2.7042,-2.7085,-2.7262,-2.7309,-2.7326,-2.7375,-2.7127,-2.7127,-2.7127,-2.7128,-2.6808,-2.6904,-2.6877,-2.7016,-2.7023,-2.7142,-2.7199,-2.7185,-2.7299,-2.7231,-2.7278,-2.7205,-2.7354,-2.7398,-2.7133,-2.7132,-2.7132,-2.7131,-2.7131,-2.6969,-2.7015,-2.7048,-2.7165,-2.7257,-2.728,-2.739,-2.7393,-2.7397,-2.7443,-2.7491,-2.7489,-2.7491,-2.7465,-2.7465,-2.7466,-2.7466,-2.7467,-2.7467,-2.7123,-2.7157,-2.7247,-2.7326,-2.7379,-2.7449,-2.7502,-2.7556,-2.7617,-2.7611,-2.7611,-2.7593,-2.7366,-2.731,-2.7477,-2.7475,-2.7474,-2.7473,-2.7472,-2.7383,-2.7323,-2.7462,-2.7514,-2.7608,-2.7699,-2.7699,-2.7808,-2.7853,-2.7908,-2.7878,-2.7708,-2.7696,-2.7678,-2.7633,-2.7873,-2.7873,-2.7873,-2.7873,-2.7521,-2.7512,-2.7655,-2.7738,-2.782,-2.7834,-2.7995,-2.8039,-2.8076,-2.8105,-2.807,-2.8008,-2.799,-2.7989,-2.7965,-2.7923,-2.8231,-2.8232,-2.8232,-2.7682,-2.7681,-2.7816,-2.7846,-2.7919,-2.7983,-2.8135,-2.8236,-2.8266,-2.8246,-2.8128,-2.8113,-2.8014,-2.7981,-2.7962,-2.7924,-2.7847,0,0]},{"header":{"parameterUnit":"m.s-1","parameterCategory":1,"la1":30.2992,"la2":30.254,"lo1":-89.0895,"lo2":-89.0443,"dy":0.0025,"dx":0.0025,"nx":19,"ny":19,"refTime":"2026-04-17T21:00:00:Z","depth":0,"parameterNumber":3,"parameterNumberName":"V-component_of_WINDS"},"data":[0,0,0,-9.1892,-9.1898,-9.2119,-9.212,-9.2423,-9.2426,0,0,0,0,0,0,0,0,0,0,0,-9.1845,-9.1847,-9.1892,-9.1898,-9.2119,-9.212,-9.2423,-9.2426,0,0,0,0,0,0,0,0,0,0,0,-9.1843,-9.1847,-9.185,-9.1899,-9.2119,-9.212,-9.2422,-9.2247,0,0,0,0,0,0,0,0,0,0,-9.2028,-9.2003,-9.1846,-9.185,-9.19,-9.2118,-9.212,-9.2238,-9.2258,-9.2334,0,-9.2411,0,-9.2424,-9.2449,-9.245,0,0,0,-9.1883,-9.1986,-9.203,-9.1851,-9.1903,-9.2118,-9.2015,-9.2249,-9.2271,-9.236,-9.2415,-9.2425,-9.2429,-9.2451,-9.2452,-9.2952,-9.2955,0,0,-9.1871,-9.1893,-9.2015,-9.2046,-9.2018,-9.2008,-9.2022,-9.2262,-9.2321,-9.2416,-9.2432,-9.2434,-9.2453,-9.2455,-9.2949,-9.2953,0,0,0,-9.1846,-9.1885,-9.1922,-9.2034,-9.2072,-9.2015,-9.2031,-9.231,-9.2321,-9.2435,-9.2438,-9.2455,-9.2459,-9.2946,-9.295,-9.3124,0,0,0,-9.1838,-9.187,-9.1918,-9.1933,-9.2069,-9.2195,-9.2075,-9.2304,-9.2331,-9.2436,-9.2455,-9.2462,-9.2942,-9.2948,-9.3112,-9.3202,0,0,0,-9.1824,-9.1868,-9.1907,-9.1934,-9.2031,-9.2191,-9.2215,-9.2309,-9.2333,-9.245,-9.2463,-9.294,-9.2947,-9.3101,-9.3184,-9.3341,0,0,0,-9.1814,-9.2055,-9.191,-9.218,-9.2029,-9.2297,-9.2213,-9.2411,-9.2531,-9.2457,-9.2943,-9.295,-9.3098,-9.3174,-9.333,-9.3479,-9.3543,0,0,-9.2131,-9.2094,-9.2251,-9.2127,-9.2429,-9.2262,-9.2586,-9.2673,-9.2661,-9.2854,-9.2866,-9.3116,-9.3183,-9.3339,-9.389,-9.3941,0,0,0,-9.2358,-9.2472,-9.2546,-9.2665,-9.274,-9.2811,-9.2848,-9.2879,-9.3043,-9.2767,-9.3213,-9.3252,-9.3343,-9.3413,-9.3456,-9.3533,-9.2983,-9.2982,-9.2981,-9.2838,-9.2814,-9.3071,-9.3073,-9.3188,-9.3224,-9.3314,-9.3362,-9.33,-9.3406,-9.3464,-9.3802,-9.3885,-9.3917,-9.3997,-9.3539,-9.3539,-9.354,-9.354,-9.33,-9.3457,-9.3372,-9.3592,-9.3562,-9.3744,-9.3786,-9.3736,-9.3899,-9.3756,-9.3834,-9.3682,-9.3974,-9.4043,-9.3553,-9.3551,-9.3549,-9.3548,-9.3547,-9.3614,-9.3685,-9.3722,-9.389,-9.4022,-9.4012,-9.4174,-9.4139,-9.4107,-9.4185,-9.4242,-9.424,-9.4233,-9.4214,-9.4216,-9.4217,-9.4218,-9.4219,-9.4219,-9.3925,-9.3961,-9.4104,-9.4205,-9.4276,-9.4365,-9.4401,-9.4468,-9.4533,-9.4495,-9.4495,-9.4424,-9.4008,-9.3905,-9.4238,-9.4234,-9.4232,-9.423,-9.4229,-9.4407,-9.4293,-9.4514,-9.4586,-9.47,-9.4832,-9.4785,-9.4926,-9.4976,-9.5056,-9.4967,-9.4665,-9.4624,-9.4589,-9.4504,-9.4972,-9.4972,-9.4972,-9.4972,-9.4673,-9.4649,-9.4868,-9.4985,-9.5095,-9.5076,-9.5322,-9.5351,-9.5362,-9.5391,-9.5317,-9.52,-9.5166,-9.5146,-9.5099,-9.5019,-9.5607,-9.5608,-9.5608,-9.4969,-9.4954,-9.5174,-9.5187,-9.5273,-9.5346,-9.5577,-9.5711,-9.5698,-9.5633,-9.5413,-9.5386,-9.5196,-9.5136,-9.507,-9.4998,-9.485,0,0]}]]